Simultaneous Nadir Overpasses (SNOs) Predictions

Prediction of SNOs between GOES-16 and NOAA-19 Satellite Orbit:

Table of predicted SNOs for the next 14.0 days since TLE Epoch: 1/11/2019
Index Date Time (GOES-16) GOES-16 Lat,Lon NOAA-19 Lat,Lon Distance(km) Time Diff (sec)
1 01/13/2019 21:43:40 -0.04, -75.19 -0.53, -77.21 231.16 80
2 01/14/2019 21:29:25 -0.04, -75.19 0.14, -74.38 92.10 80
3 01/15/2019 21:17:49 -0.04, -75.20 0.81, -71.56 415.38 80
4 01/17/2019 09:53:09 0.04, -75.21 1.00, -79.38 475.98 80
5 01/18/2019 09:41:33 0.04, -75.21 0.33, -76.55 152.64 80
6 01/19/2019 09:27:17 0.05, -75.21 -0.28, -73.71 170.81 80
7 01/20/2019 09:15:41 0.05, -75.21 -0.95, -70.88 494.26 80
8 01/21/2019 21:51:19 -0.06, -75.21 -0.88, -78.78 406.63 80
9 01/22/2019 21:39:44 -0.06, -75.22 -0.20, -75.95 82.81 80
10 01/23/2019 21:25:28 -0.06, -75.23 0.42, -73.11 241.32 80




NCC Satellite Simultaneous Nadir Overpasses (SNOs) Prediction Service
